Tracking 30995 objects as of 7-Jul-2025
HD Live streaming from Space Station
objects crossing your sky now

ONEWEB-0192

Track ONEWEB-0192 now!
10-day predictions
ONEWEB-0192 is classified as:


NORAD ID: 48222
Int'l Code: 2021-031N
Perigee: 1,211.5 km
Apogee: 1,214.4 km
Inclination: 87.9 °
Period: 109.5 minutes
Semi major axis: 7583 km
RCS: Unknown
Launch date: April 25, 2021
Source: United Kingdom (UK)
Launch site: VOSTOCHNY COSMODROME (VOSTO)
Your satellite tracking list
AETHER-2
Track 1 satellite(s)




NASA's NSSDC Master Catalog

Two Line Element Set (TLE):
1 48222U 21031N   25187.51702772 -.00000056  00000-0 -18628-3 0  9990
2 48222  87.9039 358.4983 0001913  90.5903 269.5445 13.14501812202764
Source of the keplerian elements: AFSPC